Powrót do katalogu

COSMOS 1362

AktywnyMilitariaLEO
NORAD 13165·PAYLOAD·🇷🇺 Russia

Wystrzelony May 6, 1982 z Plesetsk Cosmodrome

Loading…

Następne Przeloty (najbliższe 24 godziny)

TLE

ŚwieżeSource: Space-Track

Epoka: Sep 14, 2026, 16:23 UTC

1 13165U 82040F   26257.68282751  .00000002  00000-0  12031-3 0  9993
2 13165  74.0158 348.4589 0017781 175.9174 351.7663 12.46161596 17877

Śledź COSMOS 1362 w czasie rzeczywistym z AllMySat

Download on the App Store